,,Stat5,,Stat1,,Stat2,,Stat3,,Stat4,,Wind1,,Wind1,
time,status,PA1M_AVG,status,PR1M_SUM,status,RH1M_AVG,status,SR1M_AVG,status,TA1M_AVG,status,W1dAve1m,status,W1sAve1m,
2000-11-28, 00:00:00,VALID,917.542,VALID,0,VALID,98.5544,VALID,0,VALID,18.9901,VALID,225,VALID,0.811328,
2000-11-28, 00:01:00,VALID,917.533,VALID,0,VALID,98.5341,VALID,-0.0509425,VALID,18.9737,VALID,225,VALID,1.13638,
2000-11-28, 00:02:00,VALID,917.538,VALID,0,VALID,98.5023,VALID,0,VALID,18.9831,VALID,210,VALID,1.03812,
2000-11-28, 00:03:00,VALID,917.515,VALID,0,VALID,98.4375,VALID,0.0169808,VALID,18.9792,VALID,211,VALID,1.00308,
2000-11-28, 00:04:00,VALID,917.517,VALID,0,VALID,98.3866,VALID,0.0169808,VALID,18.9995,VALID,206,VALID,0.891295,
2000-11-28, 00:05:00,VALID,917.512,VALID,0,VALID,98.3421,VALID,0,VALID,18.9991,VALID,191,VALID,0.550781,
2000-11-28, 00:06:00,VALID,917.511,VALID,0,VALID,98.2582,VALID,0.0169808,VALID,19.0251,VALID,175,VALID,0,
2000-11-28, 00:07:00,VALID,917.509,VALID,0,VALID,98.1958,VALID,0.0339617,VALID,19.0251,VALID,175,VALID,0,
2000-11-28, 00:08:00,VALID,917.505,VALID,0,VALID,98.1641,VALID,0,VALID,19.015,VALID,170,VALID,0.379774,
2000-11-28, 00:09:00,VALID,917.506,VALID,0,VALID,98.1285,VALID,0.0169808,VALID,19.0214,VALID,173,VALID,0.410473,
2000-11-28, 00:10:00,VALID,917.51,VALID,0,VALID,98.0801,VALID,0.0169808,VALID,19.0087,VALID,166,VALID,0.753801,
2000-11-28, 00:11:00,VALID,917.501,VALID,0,VALID,98.0407,VALID,0.0169808,VALID,18.9991,VALID,147,VALID,0.723805,
2000-11-28, 00:12:00,VALID,917.501,VALID,0,VALID,98.014,VALID,0.0169808,VALID,18.9538,VALID,136,VALID,0.705128,
2000-11-28, 00:13:00,VALID,917.517,VALID,0,VALID,97.9301,VALID,0.0339617,VALID,18.9088,VALID,114,VALID,0.858507,
2000-11-28, 00:14:00,VALID,917.521,VALID,0,VALID,98,VALID,0.0169808,VALID,18.8768,VALID,110,VALID,0.844669,
2000-11-28, 00:15:00,VALID,917.502,VALID,0,VALID,98.1017,VALID,0.0169808,VALID,18.8504,VALID,122,VALID,0.840495,
2000-11-28, 00:16:00,VALID,917.496,VALID,0,VALID,98.1641,VALID,0.0339617,VALID,18.8405,VALID,128,VALID,0.540582,
2000-11-28, 00:17:00,VALID,917.488,VALID,0,VALID,98.2187,VALID,0,VALID,18.8442,VALID,138,VALID,0.412224,
2000-11-28, 00:18:00,VALID,917.48,VALID,0,VALID,98.2772,VALID,0.0339617,VALID,18.8509,VALID,142,VALID,0.541385,
2000-11-28, 00:19:00,VALID,917.481,VALID,0,VALID,98.2238,VALID,0.0169808,VALID,18.8313,VALID,114,VALID,0.68125,
2000-11-28, 00:20:00,VALID,917.464,VALID,0,VALID,98.1348,VALID,0,VALID,18.7988,VALID,111,VALID,0.991714,
2000-11-28, 00:21:00,VALID,917.459,VALID,0,VALID,98.2276,VALID,0.0339617,VALID,18.7858,VALID,118,VALID,0.851774,
2000-11-28, 00:22:00,VALID,917.452,VALID,0,VALID,98.2772,VALID,0,VALID,18.7958,VALID,124,VALID,0.610431,
2000-11-28, 00:23:00,VALID,917.453,VALID,0,VALID,98.3548,VALID,0,VALID,18.795,VALID,147,VALID,0.442235,
2000-11-28, 00:24:00,VALID,917.434,VALID,0,VALID,98.3713,VALID,0.0169808,VALID,18.8022,VALID,143,VALID,0.359592,
2000-11-28, 00:25:00,VALID,917.423,VALID,0,VALID,98.3879,VALID,-0.0169808,VALID,18.8025,VALID,143,VALID,0.417969,
2000-11-28, 00:26:00,VALID,917.393,VALID,0,VALID,98.4362,VALID,0,VALID,18.799,VALID,145,VALID,0.306066,
2000-11-28, 00:27:00,VALID,917.368,VALID,0,VALID,98.4158,VALID,0,VALID,18.7858,VALID,145,VALID,0.205025,
2000-11-28, 00:28:00,VALID,917.375,VALID,0,VALID,98.426,VALID,0.0169808,VALID,18.7727,VALID,154,VALID,0.380134,
2000-11-28, 00:29:00,VALID,917.358,VALID,0,VALID,98.4375,VALID,-0.0169808,VALID,18.7759,VALID,157,VALID,0.420691,
2000-11-28, 00:30:00,VALID,917.361,VALID,0,VALID,98.4514,VALID,0.0169808,VALID,18.7794,VALID,159,VALID,0.557855,
2000-11-28, 00:31:00,VALID,917.362,VALID,0,VALID,98.4247,VALID,0,VALID,18.7635,VALID,157,VALID,0.582348,
2000-11-28, 00:32:00,VALID,917.358,VALID,0,VALID,98.3484,VALID,-0.0339617,VALID,18.7344,VALID,154,VALID,0.746449,
2000-11-28, 00:33:00,VALID,917.362,VALID,0,VALID,98.3688,VALID,-0.0339617,VALID,18.7185,VALID,157,VALID,0.948568,
2000-11-28, 00:34:00,VALID,917.355,VALID,0,VALID,98.4336,VALID,-0.101885,VALID,18.7067,VALID,173,VALID,1.03559,
2000-11-28, 00:35:00,VALID,917.358,VALID,0,VALID,98.5048,VALID,-0.101885,VALID,18.7229,VALID,177,VALID,0.993566,
2000-11-28, 00:36:00,VALID,917.371,VALID,0,VALID,98.4387,VALID,-0.0849042,VALID,18.7162,VALID,184,VALID,0.70038,
2000-11-28, 00:37:00,VALID,917.369,VALID,0,VALID,98.4476,VALID,-0.0849042,VALID,18.6995,VALID,185,VALID,0.753795,
2000-11-28, 00:38:00,VALID,917.368,VALID,0,VALID,98.5048,VALID,-0.0849042,VALID,18.7162,VALID,179,VALID,0.761837,
2000-11-28, 00:39:00,VALID,917.365,VALID,0,VALID,98.5786,VALID,-0.0849042,VALID,18.7162,VALID,173,VALID,0.64886,
2000-11-28, 00:40:00,VALID,917.356,VALID,0,VALID,98.6028,VALID,-0.118866,VALID,18.7196,VALID,174,VALID,0.731419,
2000-11-28, 00:41:00,VALID,917.345,VALID,0,VALID,98.6536,VALID,-0.118866,VALID,18.7333,VALID,174,VALID,0.713542,
2000-11-28, 00:42:00,VALID,917.331,VALID,0,VALID,98.6536,VALID,-0.118866,VALID,18.7328,VALID,180,VALID,0.493707,
2000-11-28, 00:43:00,VALID,917.328,VALID,0,VALID,98.6307,VALID,-0.101885,VALID,18.7358,VALID,183,VALID,0.332248,
2000-11-28, 00:44:00,VALID,917.316,VALID,0,VALID,98.6282,VALID,-0.118866,VALID,18.739,VALID,176,VALID,0.210248,
2000-11-28, 00:45:00,VALID,917.316,VALID,0,VALID,98.618,VALID,-0.101885,VALID,18.7386,VALID,178,VALID,0.113598,
2000-11-28, 00:46:00,VALID,917.307,VALID,0,VALID,98.6002,VALID,-0.0849042,VALID,18.7393,VALID,183,VALID,0.229018,
2000-11-28, 00:47:00,VALID,917.314,VALID,0,VALID,98.6028,VALID,-0.101885,VALID,18.7423,VALID,191,VALID,0.178504,
2000-11-28, 00:48:00,VALID,917.323,VALID,0,VALID,98.5964,VALID,-0.0849042,VALID,18.7425,VALID,191,VALID,0,
2000-11-28, 00:49:00,VALID,917.322,VALID,0,VALID,98.5684,VALID,-0.101885,VALID,18.7326,VALID,182,VALID,0,
2000-11-28, 00:50:00,VALID,917.321,VALID,0,VALID,98.5061,VALID,-0.101885,VALID,18.7072,VALID,160,VALID,0,
2000-11-28, 00:51:00,VALID,917.32,VALID,0,VALID,98.4553,VALID,-0.101885,VALID,18.6813,VALID,159,VALID,0,
2000-11-28, 00:52:00,VALID,917.303,VALID,0,VALID,98.412,VALID,-0.101885,VALID,18.6557,VALID,159,VALID,0,
2000-11-28, 00:53:00,VALID,917.289,VALID,0,VALID,98.4464,VALID,-0.101885,VALID,18.6259,VALID,159,VALID,0,
2000-11-28, 00:54:00,VALID,917.281,VALID,0,VALID,98.4616,VALID,-0.0339617,VALID,18.6031,VALID,159,VALID,0,
2000-11-28, 00:55:00,VALID,917.284,VALID,0,VALID,98.4845,VALID,-0.0849042,VALID,18.5936,VALID,159,VALID,0,
2000-11-28, 00:56:00,VALID,917.269,VALID,0,VALID,98.5201,VALID,-0.0679233,VALID,18.5876,VALID,159,VALID,0,
2000-11-28, 00:57:00,VALID,917.25,VALID,0,VALID,98.5303,VALID,-0.0849042,VALID,18.5713,VALID,159,VALID,0,
2000-11-28, 00:58:00,VALID,917.241,VALID,0,VALID,98.5188,VALID,-0.101885,VALID,18.5489,VALID,159,VALID,0,
2000-11-28, 00:59:00,VALID,917.239,VALID,0,VALID,98.5099,VALID,-0.101885,VALID,18.5233,VALID,159,VALID,0,
2000-11-28, 01:00:00,VALID,917.211,VALID,0,VALID,98.5048,VALID,-0.101885,VALID,18.4903,VALID,159,VALID,0,
2000-11-28, 01:01:00,VALID,917.194,VALID,0,VALID,98.482,VALID,-0.0849042,VALID,18.452,VALID,145,VALID,0,
2000-11-28, 01:02:00,VALID,917.183,VALID,0,VALID,98.5048,VALID,-0.0849042,VALID,18.413,VALID,136,VALID,0,
2000-11-28, 01:03:00,VALID,917.163,VALID,0,VALID,98.6129,VALID,-0.101885,VALID,18.4132,VALID,136,VALID,0,
2000-11-28, 01:04:00,VALID,917.159,VALID,0,VALID,98.7439,VALID,-0.101885,VALID,18.439,VALID,136,VALID,0,
2000-11-28, 01:05:00,VALID,917.139,VALID,0,VALID,98.8316,VALID,-0.0849042,VALID,18.4748,VALID,136,VALID,0.246686,
2000-11-28, 01:06:00,VALID,917.118,VALID,0,VALID,98.8355,VALID,-0.0849042,VALID,18.4746,VALID,149,VALID,0.450591,
2000-11-28, 01:07:00,VALID,917.104,VALID,0,VALID,98.9321,VALID,-0.101885,VALID,18.5009,VALID,164,VALID,0.600507,
2000-11-28, 01:08:00,VALID,917.079,VALID,0,VALID,98.9982,VALID,-0.101885,VALID,18.5491,VALID,174,VALID,0.584517,
2000-11-28, 01:09:00,VALID,917.076,VALID,0,VALID,99.0008,VALID,-0.101885,VALID,18.575,VALID,177,VALID,0.566189,
2000-11-28, 01:10:00,VALID,917.073,VALID,0,VALID,98.9931,VALID,-0.0849042,VALID,18.6075,VALID,177,VALID,0.509983,
2000-11-28, 01:11:00,VALID,917.07,VALID,0,VALID,98.9461,VALID,-0.101885,VALID,18.6299,VALID,177,VALID,0.29205,
2000-11-28, 01:12:00,VALID,917.067,VALID,0,VALID,98.8609,VALID,-0.101885,VALID,18.6299,VALID,177,VALID,0,
2000-11-28, 01:13:00,VALID,917.071,VALID,0,VALID,98.688,VALID,-0.101885,VALID,18.5814,VALID,177,VALID,0,
2000-11-28, 01:14:00,VALID,917.058,VALID,0,VALID,98.4947,VALID,-0.101885,VALID,18.4974,VALID,177,VALID,0,
2000-11-28, 01:15:00,VALID,917.046,VALID,0,VALID,98.3039,VALID,-0.101885,VALID,18.4134,VALID,139,VALID,0,
2000-11-28, 01:16:00,VALID,917.024,VALID,0,VALID,98.2632,VALID,-0.101885,VALID,18.349,VALID,118,VALID,0,
2000-11-28, 01:17:00,VALID,917.024,VALID,0,VALID,98.3662,VALID,-0.101885,VALID,18.3034,VALID,119,VALID,0.337595,
2000-11-28, 01:18:00,VALID,917.02,VALID,0,VALID,98.4985,VALID,-0.0679233,VALID,18.2997,VALID,114,VALID,0.719618,
2000-11-28, 01:19:00,VALID,917.012,VALID,0,VALID,98.6549,VALID,-0.0169808,VALID,18.3151,VALID,111,VALID,0.777561,
2000-11-28, 01:20:00,VALID,916.994,VALID,0,VALID,98.7999,VALID,0,VALID,18.3474,VALID,110,VALID,0.875689,
2000-11-28, 01:21:00,VALID,916.974,VALID,0,VALID,98.9296,VALID,-0.0169808,VALID,18.3991,VALID,113,VALID,0.72614,
2000-11-28, 01:22:00,VALID,916.964,VALID,0,VALID,99.0249,VALID,-0.0169808,VALID,18.4582,VALID,124,VALID,0.618973,
2000-11-28, 01:23:00,VALID,916.95,VALID,0,VALID,99.0961,VALID,0,VALID,18.5156,VALID,127,VALID,0.655303,
2000-11-28, 01:24:00,VALID,916.943,VALID,0,VALID,99.0631,VALID,0.0169808,VALID,18.5537,VALID,130,VALID,0.624367,
2000-11-28, 01:25:00,VALID,916.928,VALID,0,VALID,99.0059,VALID,0,VALID,18.583,VALID,137,VALID,0.515203,
2000-11-28, 01:26:00,VALID,916.906,VALID,0,VALID,98.8901,VALID,0.0169808,VALID,18.5959,VALID,143,VALID,0.41572,
2000-11-28, 01:27:00,VALID,916.897,VALID,0,VALID,98.7973,VALID,0,VALID,18.5989,VALID,169,VALID,0.62283,
2000-11-28, 01:28:00,VALID,916.891,VALID,0,VALID,98.7668,VALID,0,VALID,18.6188,VALID,176,VALID,0.723307,
2000-11-28, 01:29:00,VALID,916.872,VALID,0,VALID,98.7604,VALID,0.0169808,VALID,18.6546,VALID,174,VALID,0.676241,
2000-11-28, 01:30:00,VALID,916.88,VALID,0,VALID,98.6206,VALID,-0.0169808,VALID,18.6707,VALID,166,VALID,0.491132,
2000-11-28, 01:31:00,VALID,916.877,VALID,0,VALID,98.454,VALID,0,VALID,18.6409,VALID,163,VALID,0.596652,
2000-11-28, 01:32:00,VALID,916.88,VALID,0,VALID,98.3866,VALID,0,VALID,18.6379,VALID,173,VALID,0.828835,
2000-11-28, 01:33:00,VALID,916.863,VALID,0,VALID,98.3815,VALID,-0.0169808,VALID,18.6315,VALID,183,VALID,0.884924,
2000-11-28, 01:34:00,VALID,916.864,VALID,0,VALID,98.3777,VALID,0,VALID,18.6188,VALID,197,VALID,0.880701,
2000-11-28, 01:35:00,VALID,916.854,VALID,0,VALID,98.3395,VALID,-0.0169808,VALID,18.6061,VALID,203,VALID,0.424953,
2000-11-28, 01:36:00,VALID,916.857,VALID,0,VALID,98.3472,VALID,0.0339617,VALID,18.5899,VALID,207,VALID,0.39171,
2000-11-28, 01:37:00,VALID,916.854,VALID,0,VALID,98.4196,VALID,0.0169808,VALID,18.5736,VALID,213,VALID,0.214193,
2000-11-28, 01:38:00,VALID,916.859,VALID,0,VALID,98.4235,VALID,0.0169808,VALID,18.5736,VALID,213,VALID,0.166131,
2000-11-28, 01:39:00,VALID,916.851,VALID,0,VALID,98.4375,VALID,0,VALID,18.5606,VALID,213,VALID,0.159206,
2000-11-28, 01:40:00,VALID,916.833,VALID,0,VALID,98.4298,VALID,0.0339617,VALID,18.5542,VALID,228,VALID,0.124107,
2000-11-28, 01:41:00,VALID,916.82,VALID,0,VALID,98.487,VALID,0,VALID,18.5378,VALID,216,VALID,0.872869,
2000-11-28, 01:42:00,VALID,916.806,VALID,0,VALID,98.515,VALID,0.0169808,VALID,18.5348,VALID,217,VALID,0.52935,
2000-11-28, 01:43:00,VALID,916.798,VALID,0,VALID,98.5188,VALID,0,VALID,18.5283,VALID,214,VALID,0.57538,
2000-11-28, 01:44:00,VALID,916.784,VALID,0,VALID,98.5722,VALID,0,VALID,18.5253,VALID,201,VALID,0.346354,
2000-11-28, 01:45:00,VALID,916.797,VALID,0,VALID,98.5048,VALID,0,VALID,18.5027,VALID,164,VALID,0.477214,
2000-11-28, 01:46:00,VALID,916.779,VALID,0,VALID,98.487,VALID,0.0169808,VALID,18.4476,VALID,157,VALID,0.720703,
2000-11-28, 01:47:00,VALID,916.779,VALID,0,VALID,98.7134,VALID,0,VALID,18.4702,VALID,167,VALID,0.870634,
2000-11-28, 01:48:00,VALID,916.768,VALID,0,VALID,98.7897,VALID,-0.0339617,VALID,18.4868,VALID,169,VALID,0.721284,
2000-11-28, 01:49:00,VALID,916.755,VALID,0,VALID,98.7846,VALID,-0.135847,VALID,18.4785,VALID,164,VALID,0.645759,
2000-11-28, 01:50:00,VALID,916.757,VALID,0,VALID,98.8164,VALID,-0.118866,VALID,18.469,VALID,163,VALID,0.652462,
2000-11-28, 01:51:00,VALID,916.745,VALID,0,VALID,98.9079,VALID,-0.101885,VALID,18.4589,VALID,173,VALID,0.638514,
2000-11-28, 01:52:00,VALID,916.739,VALID,0,VALID,98.9855,VALID,-0.118866,VALID,18.4815,VALID,182,VALID,0.594806,
2000-11-28, 01:53:00,VALID,916.74,VALID,0,VALID,99.0186,VALID,-0.101885,VALID,18.4815,VALID,181,VALID,0.548059,
2000-11-28, 01:54:00,VALID,916.71,VALID,0,VALID,99.0631,VALID,-0.101885,VALID,18.491,VALID,181,VALID,0.516276,
2000-11-28, 01:55:00,VALID,916.692,VALID,0,VALID,99.0631,VALID,-0.118866,VALID,18.4942,VALID,180,VALID,0.688802,
2000-11-28, 01:56:00,VALID,916.683,VALID,0,VALID,99.0567,VALID,-0.118866,VALID,18.5016,VALID,179,VALID,0.709789,
2000-11-28, 01:57:00,VALID,916.671,VALID,0,VALID,99.0338,VALID,-0.118866,VALID,18.4919,VALID,182,VALID,0.67103,
2000-11-28, 01:58:00,VALID,916.648,VALID,0,VALID,99.0135,VALID,-0.118866,VALID,18.4626,VALID,200,VALID,0.745313,
2000-11-28, 01:59:00,VALID,916.636,VALID,0,VALID,99.0364,VALID,-0.101885,VALID,18.4628,VALID,198,VALID,0.848958,
2000-11-28, 02:00:00,VALID,916.62,VALID,0,VALID,99.0605,VALID,-0.101885,VALID,18.436,VALID,195,VALID,0.9375,
2000-11-28, 02:01:00,VALID,916.615,VALID,0,VALID,99.1012,VALID,-0.0849042,VALID,18.4656,VALID,195,VALID,1.0644,
2000-11-28, 02:02:00,VALID,916.608,VALID,0,VALID,99.0936,VALID,-0.101885,VALID,18.4587,VALID,191,VALID,0.974905,
2000-11-28, 02:03:00,VALID,916.597,VALID,0,VALID,99.1292,VALID,-0.0849042,VALID,18.4847,VALID,189,VALID,1.07552,
2000-11-28, 02:04:00,VALID,916.597,VALID,0,VALID,99.1216,VALID,0,VALID,18.5059,VALID,190,VALID,0.851128,
2000-11-28, 02:05:00,VALID,916.579,VALID,0,VALID,99.1254,VALID,-0.0169808,VALID,18.5087,VALID,196,VALID,0.784237,
2000-11-28, 02:06:00,VALID,916.598,VALID,0,VALID,99.1025,VALID,-0.0169808,VALID,18.5219,VALID,201,VALID,0.826858,
2000-11-28, 02:07:00,VALID,916.588,VALID,0,VALID,99.1,VALID,-0.0169808,VALID,18.535,VALID,203,VALID,0.973214,
2000-11-28, 02:08:00,VALID,916.595,VALID,0,VALID,99.0822,VALID,-0.0169808,VALID,18.532,VALID,201,VALID,0.703125,
2000-11-28, 02:09:00,VALID,916.601,VALID,0,VALID,99.0631,VALID,0,VALID,18.5283,VALID,197,VALID,0.826858,
2000-11-28, 02:10:00,VALID,916.576,VALID,0,VALID,99.0834,VALID,0,VALID,18.5385,VALID,195,VALID,0.852618,
2000-11-28, 02:11:00,VALID,916.573,VALID,0,VALID,99.1025,VALID,-0.0169808,VALID,18.5452,VALID,209,VALID,0.836174,
2000-11-28, 02:12:00,VALID,916.574,VALID,0,VALID,99.1114,VALID,0,VALID,18.535,VALID,209,VALID,0.704861,
2000-11-28, 02:13:00,VALID,916.563,VALID,0,VALID,99.1063,VALID,-0.0169808,VALID,18.5482,VALID,207,VALID,0.614583,
2000-11-28, 02:14:00,VALID,916.557,VALID,0,VALID,99.1,VALID,0,VALID,18.5452,VALID,192,VALID,0.737362,
2000-11-28, 02:15:00,VALID,916.532,VALID,0,VALID,99.0771,VALID,0,VALID,18.5318,VALID,182,VALID,0.900971,
2000-11-28, 02:16:00,VALID,916.529,VALID,0,VALID,99.0961,VALID,0,VALID,18.5318,VALID,191,VALID,1.00022,
2000-11-28, 02:17:00,VALID,916.533,VALID,0,VALID,99.0733,VALID,0,VALID,18.539,VALID,203,VALID,0.769886,
2000-11-28, 02:18:00,VALID,916.522,VALID,0,VALID,99.0466,VALID,-0.0169808,VALID,18.5355,VALID,197,VALID,0.712416,
2000-11-28, 02:19:00,VALID,916.507,VALID,0,VALID,99.0605,VALID,0,VALID,18.5422,VALID,209,VALID,0.879645,
2000-11-28, 02:20:00,VALID,916.494,VALID,0,VALID,99.0669,VALID,-0.0169808,VALID,18.5449,VALID,201,VALID,0.842803,
2000-11-28, 02:21:00,VALID,916.488,VALID,0,VALID,99.0313,VALID,-0.0339617,VALID,18.5486,VALID,201,VALID,0.69553,
2000-11-28, 02:22:00,VALID,916.482,VALID,0,VALID,99.0135,VALID,-0.0339617,VALID,18.5516,VALID,194,VALID,1.09093,
2000-11-28, 02:23:00,VALID,916.476,VALID,0,VALID,98.9931,VALID,-0.0169808,VALID,18.5639,VALID,193,VALID,1.10731,
2000-11-28, 02:24:00,VALID,916.476,VALID,0,VALID,98.9359,VALID,0,VALID,18.574,VALID,187,VALID,1.06736,
2000-11-28, 02:25:00,VALID,916.477,VALID,0,VALID,98.8673,VALID,0,VALID,18.5934,VALID,192,VALID,0.973437,
2000-11-28, 02:26:00,VALID,916.475,VALID,0,VALID,98.7859,VALID,-0.0169808,VALID,18.5962,VALID,202,VALID,0.904356,
2000-11-28, 02:27:00,VALID,916.479,VALID,0,VALID,98.6918,VALID,0,VALID,18.5897,VALID,198,VALID,0.908995,
2000-11-28, 02:28:00,VALID,916.5,VALID,0,VALID,98.5989,VALID,0,VALID,18.5929,VALID,193,VALID,0.587627,
2000-11-28, 02:29:00,VALID,916.511,VALID,0,VALID,98.4832,VALID,0,VALID,18.5835,VALID,196,VALID,0.743608,
2000-11-28, 02:30:00,VALID,916.501,VALID,0,VALID,98.3434,VALID,0,VALID,18.5837,VALID,198,VALID,0.604818,
2000-11-28, 02:31:00,VALID,916.51,VALID,0,VALID,98.2098,VALID,0,VALID,18.5805,VALID,196,VALID,0.91059,
2000-11-28, 02:32:00,VALID,916.511,VALID,0,VALID,98.0356,VALID,0.0169808,VALID,18.5768,VALID,198,VALID,0.683594,
2000-11-28, 02:33:00,VALID,916.498,VALID,0,VALID,97.8932,VALID,0,VALID,18.5835,VALID,196,VALID,0.781039,
2000-11-28, 02:34:00,VALID,916.471,VALID,0,VALID,97.78,VALID,-0.0169808,VALID,18.577,VALID,196,VALID,1.03147,
2000-11-28, 02:35:00,VALID,916.463,VALID,0,VALID,97.6898,VALID,0,VALID,18.5639,VALID,184,VALID,1.13897,
2000-11-28, 02:36:00,VALID,916.454,VALID,0,VALID,97.5906,VALID,-0.0169808,VALID,18.5606,VALID,181,VALID,1.14675,
2000-11-28, 02:37:00,VALID,916.431,VALID,0,VALID,97.5117,VALID,-0.0169808,VALID,18.5768,VALID,188,VALID,1.24514,
2000-11-28, 02:38:00,VALID,916.42,VALID,0,VALID,97.4672,VALID,-0.0169808,VALID,18.5731,VALID,186,VALID,1.25142,
2000-11-28, 02:39:00,VALID,916.42,VALID,0,VALID,97.3566,VALID,-0.0169808,VALID,18.5929,VALID,174,VALID,0.840929,
2000-11-28, 02:40:00,VALID,916.429,VALID,0,VALID,97.3808,VALID,0,VALID,18.5862,VALID,174,VALID,0.855903,
2000-11-28, 02:41:00,VALID,916.423,VALID,0,VALID,97.3642,VALID,-0.0679233,VALID,18.5906,VALID,171,VALID,0.645221,
2000-11-28, 02:42:00,VALID,916.421,VALID,0,VALID,97.3451,VALID,0,VALID,18.5706,VALID,168,VALID,0.638091,
2000-11-28, 02:43:00,VALID,916.435,VALID,0,VALID,97.4075,VALID,0,VALID,18.542,VALID,169,VALID,0.614509,
2000-11-28, 02:44:00,VALID,916.439,VALID,0,VALID,97.5054,VALID,0,VALID,18.5251,VALID,173,VALID,0.414773,
2000-11-28, 02:45:00,VALID,916.435,VALID,0,VALID,97.6402,VALID,0,VALID,18.5099,VALID,180,VALID,0.176098,
2000-11-28, 02:46:00,VALID,916.434,VALID,0,VALID,97.6936,VALID,0,VALID,18.4799,VALID,204,VALID,0.0143581,
2000-11-28, 02:47:00,VALID,916.433,VALID,0,VALID,97.7813,VALID,0.0169808,VALID,18.4739,VALID,179,VALID,0.246686,
2000-11-28, 02:48:00,VALID,916.441,VALID,0,VALID,97.7711,VALID,-0.0169808,VALID,18.4545,VALID,174,VALID,0.598958,
2000-11-28, 02:49:00,VALID,916.438,VALID,0,VALID,97.9148,VALID,0,VALID,18.425,VALID,176,VALID,0.865451,
2000-11-28, 02:50:00,VALID,916.44,VALID,0,VALID,98.0394,VALID,-0.0339617,VALID,18.4483,VALID,176,VALID,0.894761,
2000-11-28, 02:51:00,VALID,916.432,VALID,0,VALID,98,VALID,0,VALID,18.4227,VALID,168,VALID,0.809122,
2000-11-28, 02:52:00,VALID,916.444,VALID,0,VALID,98.0636,VALID,0,VALID,18.4162,VALID,170,VALID,0.991741,
2000-11-28, 02:53:00,VALID,916.448,VALID,0,VALID,98.1145,VALID,0.0169808,VALID,18.3966,VALID,170,VALID,1.0116,
2000-11-28, 02:54:00,VALID,916.448,VALID,0,VALID,98.2442,VALID,0,VALID,18.3897,VALID,173,VALID,1.13809,
2000-11-28, 02:55:00,VALID,916.447,VALID,0,VALID,98.2925,VALID,0,VALID,18.403,VALID,171,VALID,1.16681,
2000-11-28, 02:56:00,VALID,916.459,VALID,0,VALID,98.3421,VALID,0,VALID,18.409,VALID,178,VALID,1.17448,
2000-11-28, 02:57:00,VALID,916.442,VALID,0,VALID,98.4375,VALID,0,VALID,18.4453,VALID,185,VALID,1.14084,
2000-11-28, 02:58:00,VALID,916.453,VALID,0,VALID,98.3993,VALID,-0.0169808,VALID,18.457,VALID,201,VALID,1.03559,
2000-11-28, 02:59:00,VALID,916.45,VALID,0,VALID,98.3548,VALID,-0.0169808,VALID,18.4776,VALID,204,VALID,1.06778,
2000-11-28, 03:00:00,VALID,916.455,VALID,0,VALID,98.323,VALID,0,VALID,18.464,VALID,201,VALID,1.18771,
2000-11-28, 03:01:00,VALID,916.467,VALID,0,VALID,98.3243,VALID,0,VALID,18.4739,VALID,203,VALID,0.943527,
2000-11-28, 03:02:00,VALID,916.455,VALID,0,VALID,98.3294,VALID,0,VALID,18.4642,VALID,198,VALID,0.639678,
2000-11-28, 03:03:00,VALID,916.436,VALID,0,VALID,98.3077,VALID,0,VALID,18.4545,VALID,203,VALID,0.710304,
2000-11-28, 03:04:00,VALID,916.434,VALID,0,VALID,98.3472,VALID,0,VALID,18.4543,VALID,186,VALID,0.697846,
2000-11-28, 03:05:00,VALID,916.424,VALID,0,VALID,98.3929,VALID,0,VALID,18.4413,VALID,184,VALID,0.823864,
2000-11-28, 03:06:00,VALID,916.442,VALID,0,VALID,98.4464,VALID,0,VALID,18.4413,VALID,182,VALID,0.785373,
2000-11-28, 03:07:00,VALID,916.438,VALID,0,VALID,98.529,VALID,0.0169808,VALID,18.4709,VALID,191,VALID,0.923394,
2000-11-28, 03:08:00,VALID,916.427,VALID,0,VALID,98.4502,VALID,-0.0169808,VALID,18.4713,VALID,167,VALID,0.728171,
2000-11-28, 03:09:00,VALID,916.428,VALID,0,VALID,98.365,VALID,-0.0169808,VALID,18.4413,VALID,168,VALID,0.789063,
2000-11-28, 03:10:00,VALID,916.4,VALID,0,VALID,98.3993,VALID,-0.0339617,VALID,18.4416,VALID,171,VALID,0.96875,
2000-11-28, 03:11:00,VALID,916.4,VALID,0,VALID,98.4171,VALID,-0.0169808,VALID,18.4416,VALID,169,VALID,0.997633,
2000-11-28, 03:12:00,VALID,916.393,VALID,0,VALID,98.5176,VALID,0,VALID,18.4547,VALID,176,VALID,1.05152,
2000-11-28, 03:13:00,VALID,916.381,VALID,0,VALID,98.5163,VALID,0,VALID,18.4863,VALID,183,VALID,0.97614,
2000-11-28, 03:14:00,VALID,916.374,VALID,0,VALID,98.4222,VALID,0,VALID,18.5124,VALID,186,VALID,0.933002,
2000-11-28, 03:15:00,VALID,916.37,VALID,0,VALID,98.3256,VALID,-0.0169808,VALID,18.538,VALID,195,VALID,0.796224,
2000-11-28, 03:16:00,VALID,916.358,VALID,0,VALID,98.1653,VALID,0,VALID,18.5445,VALID,200,VALID,0.539931,
2000-11-28, 03:17:00,VALID,916.355,VALID,0,VALID,98.0483,VALID,0,VALID,18.538,VALID,194,VALID,0.511719,
2000-11-28, 03:18:00,VALID,916.356,VALID,0,VALID,97.9288,VALID,0,VALID,18.535,VALID,193,VALID,0.3731,
2000-11-28, 03:19:00,VALID,916.34,VALID,0,VALID,97.8805,VALID,0,VALID,18.5221,VALID,199,VALID,0.549107,
2000-11-28, 03:20:00,VALID,916.329,VALID,0,VALID,97.9314,VALID,0,VALID,18.503,VALID,201,VALID,0.742188,
2000-11-28, 03:21:00,VALID,916.332,VALID,0,VALID,97.9809,VALID,0,VALID,18.496,VALID,198,VALID,0.89886,
2000-11-28, 03:22:00,VALID,916.328,VALID,0,VALID,97.9746,VALID,0.0169808,VALID,18.5096,VALID,196,VALID,0.861698,
2000-11-28, 03:23:00,VALID,916.32,VALID,0,VALID,97.9339,VALID,0,VALID,18.5129,VALID,195,VALID,0.808002,
2000-11-28, 03:24:00,VALID,916.311,VALID,0,VALID,97.822,VALID,0.0169808,VALID,18.5159,VALID,191,VALID,0.66276,
2000-11-28, 03:25:00,VALID,916.3,VALID,0,VALID,97.7838,VALID,0,VALID,18.5025,VALID,190,VALID,0.805556,
2000-11-28, 03:26:00,VALID,916.287,VALID,0,VALID,97.6936,VALID,0,VALID,18.5089,VALID,183,VALID,0.821691,
2000-11-28, 03:27:00,VALID,916.28,VALID,0,VALID,97.6974,VALID,0,VALID,18.5124,VALID,190,VALID,0.956292,
2000-11-28, 03:28:00,VALID,916.267,VALID,0,VALID,97.7635,VALID,0,VALID,18.5452,VALID,192,VALID,1.05179,
2000-11-28, 03:29:00,VALID,916.247,VALID,0,VALID,97.6834,VALID,-0.0169808,VALID,18.5606,VALID,192,VALID,0.999527,
2000-11-28, 03:30:00,VALID,916.255,VALID,0,VALID,97.5562,VALID,0,VALID,18.6003,VALID,189,VALID,0.85473,
2000-11-28, 03:31:00,VALID,916.261,VALID,0,VALID,97.3744,VALID,0,VALID,18.6001,VALID,176,VALID,0.744088,
2000-11-28, 03:32:00,VALID,916.263,VALID,0,VALID,97.2358,VALID,0,VALID,18.58,VALID,175,VALID,0.852036,
2000-11-28, 03:33:00,VALID,916.264,VALID,0,VALID,97.1163,VALID,0,VALID,18.5576,VALID,173,VALID,1.0447,
2000-11-28, 03:34:00,VALID,916.263,VALID,0,VALID,97.176,VALID,0,VALID,18.5256,VALID,171,VALID,1.33681,
2000-11-28, 03:35:00,VALID,916.261,VALID,0,VALID,97.1964,VALID,0.0169808,VALID,18.4732,VALID,170,VALID,1.05676,
2000-11-28, 03:36:00,VALID,916.255,VALID,0,VALID,97.4863,VALID,0,VALID,18.4443,VALID,181,VALID,1.21242,